TimeCDT,TemperatureF,Dew PointF,Humidity,Sea Level PressureIn,VisibilityMPH,Wind Direction,Wind SpeedMPH,Gust SpeedMPH,PrecipitationIn,Events,Conditions,WindDirDegrees,DateUTC
12:53 AM,-9999,-9999,N/A,29.96,10.0,SSW,10.4,-,N/A,,Overcast,200,2013-09-29 05:53:00
1:53 AM,-9999,-9999,N/A,29.96,10.0,SSW,10.4,-,N/A,,Overcast,210,2013-09-29 06:53:00
2:53 AM,-9999,-9999,N/A,29.97,4.0,West,9.2,19.6,0.01,Rain,Light Rain,270,2013-09-29 07:53:00
3:53 AM,-9999,-9999,N/A,29.97,3.0,West,8.1,-,0.06,Rain,Light Rain,270,2013-09-29 08:53:00
4:11 AM,-9999,-9999,N/A,29.98,5.0,NNW,13.8,21.9,0.02,Rain,Light Rain,330,2013-09-29 09:11:00
4:24 AM,-9999,-9999,N/A,29.99,6.0,NNW,9.2,18.4,0.04,Rain,Light Rain,340,2013-09-29 09:24:00
4:43 AM,-9999,-9999,N/A,29.99,7.0,NNW,8.1,18.4,0.07,Rain,Light Rain,340,2013-09-29 09:43:00
4:47 AM,-9999,-9999,N/A,29.99,8.0,NNW,5.8,-,0.07,Rain,Light Rain,340,2013-09-29 09:47:00
4:53 AM,-9999,-9999,N/A,29.99,9.0,NNW,9.2,-,0.08,Rain,Light Rain,340,2013-09-29 09:53:00
5:40 AM,-9999,-9999,N/A,30.00,10.0,North,6.9,-,0.00,,Overcast,350,2013-09-29 10:40:00
5:53 AM,-9999,-9999,N/A,30.00,9.0,Variable,6.9,-,0.00,,Overcast,0,2013-09-29 10:53:00
6:10 AM,-9999,-9999,N/A,30.01,8.0,North,6.9,-,0.00,,Overcast,350,2013-09-29 11:10:00
6:21 AM,-9999,-9999,N/A,30.01,10.0,North,6.9,-,0.00,,Overcast,360,2013-09-29 11:21:00
6:53 AM,-9999,-9999,N/A,30.01,10.0,North,4.6,-,0.00,,Overcast,10,2013-09-29 11:53:00
7:53 AM,-9999,-9999,N/A,30.02,10.0,North,3.5,-,N/A,,Overcast,350,2013-09-29 12:53:00
8:53 AM,-9999,-9999,N/A,30.02,10.0,North,6.9,-,N/A,,Scattered Clouds,10,2013-09-29 13:53:00
9:48 AM,-9999,-9999,N/A,30.04,10.0,North,6.9,-,N/A,,Mostly Cloudy,360,2013-09-29 14:48:00
9:53 AM,-9999,-9999,N/A,30.04,10.0,North,6.9,-,N/A,,Mostly Cloudy,350,2013-09-29 14:53:00
10:53 AM,-9999,-9999,N/A,30.04,10.0,Variable,5.8,-,N/A,,Overcast,0,2013-09-29 15:53:00
11:53 AM,-9999,-9999,N/A,30.05,10.0,North,8.1,-,N/A,,Overcast,10,2013-09-29 16:53:00
12:15 PM,-9999,-9999,N/A,30.05,10.0,North,6.9,-,N/A,,Overcast,350,2013-09-29 17:15:00
12:53 PM,-9999,-9999,N/A,30.04,10.0,North,8.1,-,N/A,,Mostly Cloudy,350,2013-09-29 17:53:00
1:53 PM,-9999,-9999,N/A,30.03,10.0,North,6.9,-,N/A,,Overcast,10,2013-09-29 18:53:00
2:21 PM,-9999,-9999,N/A,30.02,10.0,North,6.9,-,N/A,,Mostly Cloudy,360,2013-09-29 19:21:00
2:31 PM,-9999,-9999,N/A,30.02,10.0,North,9.2,-,N/A,,Mostly Cloudy,350,2013-09-29 19:31:00
2:53 PM,-9999,-9999,N/A,30.02,10.0,NNW,6.9,-,N/A,,Mostly Cloudy,340,2013-09-29 19:53:00
3:53 PM,-9999,-9999,N/A,30.02,10.0,Variable,3.5,-,N/A,,Mostly Cloudy,0,2013-09-29 20:53:00
4:53 PM,-9999,-9999,N/A,30.02,10.0,North,6.9,-,N/A,,Scattered Clouds,10,2013-09-29 21:53:00
5:53 PM,-9999,-9999,N/A,30.03,10.0,NNW,3.5,-,N/A,,Clear,340,2013-09-29 22:53:00
6:53 PM,-9999,-9999,N/A,30.02,10.0,Calm,Calm,-,N/A,,Clear,0,2013-09-29 23:53:00
7:53 PM,-9999,-9999,N/A,30.02,10.0,Calm,Calm,-,N/A,,Clear,0,2013-09-30 00:53:00
8:53 PM,-9999,-9999,N/A,30.02,10.0,Calm,Calm,-,N/A,,Clear,0,2013-09-30 01:53:00
9:53 PM,-9999,-9999,N/A,30.02,9.0,Calm,Calm,-,N/A,,Clear,0,2013-09-30 02:53:00
10:53 PM,-9999,-9999,N/A,30.02,10.0,Calm,Calm,-,N/A,,Clear,0,2013-09-30 03:53:00
11:53 PM,-9999,-9999,N/A,30.02,10.0,Calm,Calm,-,N/A,,Clear,0,2013-09-30 04:53:00